Weather History for Aiken, SC

Change the Weather History Date:

Sunday, September 7, 2014

  Actual Average Record
Temperature  
Mean Temperature 80 °F -  
Max Temperature 91 °F 87 °F 91 °F (2010)
Min Temperature 69 °F 64 °F 59 °F (2011)
Cooling Degree Days 15    
Growing Degree Days 30 (Base 50)    
Moisture  
Dew Point 73 °F    
Average Humidity 88    
Maximum Humidity 100    
Minimum Humidity 52    
Precipitation  
Precipitation 0.00 in - - ()
Sea Level Pressure  
Sea Level Pressure 30.02 in    
Wind  
Wind Speed 3 mph (ENE)    
Max Wind Speed 13 mph    
Max Gust Speed 18 mph    
Visibility 9 miles    
Events Fog , Rain , Thunderstorm    
Averages and records for this station are not official NWS values.
T = Trace of Precipitation, MM = Missing Value Source: NWS Daily Summary

Daily Weather History Graph

Daily Weather History Graph

Search for Another Location

Airport:

Trip Planner

Search our weather history database for the weather conditions in past years. The results will help you decide how hot, cold, wet, or windy it might be!

Date:

Astronomy

Sep. 07, 2014 Rise Set
Actual Time 7:04 AM EDT 7:44 PM EDT
Civil Twilight 6:39 AM EDT 8:09 PM EDT
Nautical Twilight 6:09 AM EDT 8:38 PM EDT
Astronomical Twilight 5:39 AM EDT 9:09 PM EDT
Moon 6:41 PM EDT (9/7) 5:19 AM EDT (9/7)
Length of Visible Light 13h 29m
Length of Day
12h 39m
Waxing Gibbous, 97% of the Moon is Illuminated
Sep 7
Waxing Gibbous
Sep 8
Full
Sep 15
Last Quarter
Sep 24
New
Oct 1
First Quarter

Hourly Weather History & Observations

Time (EDT) Temp. Heat Index Dew Point Humidity Pressure Visibility Wind Dir Wind Speed Gust Speed Precip Events Conditions
12:15 AM 75.2 °F - 75.2 °F 100% 30.03 in 10.0 mi Calm Calm - N/A   Clear
12:35 AM 75.2 °F - 75.2 °F 100% 30.03 in 10.0 mi Calm Calm - N/A   Clear
12:55 AM 73.4 °F - 73.4 °F 100% 30.02 in 10.0 mi South 3.5 mph - N/A   Clear
1:15 AM 73.4 °F - 73.4 °F 100% 30.02 in 10.0 mi Calm Calm - N/A   Clear
1:35 AM 73.4 °F - 73.4 °F 100% 30.02 in 10.0 mi Calm Calm - N/A   Clear
1:55 AM 73.4 °F - 73.4 °F 100% 30.02 in 10.0 mi Calm Calm - N/A   Clear
2:15 AM 73.4 °F - 73.4 °F 100% 30.01 in 10.0 mi Calm Calm - N/A   Clear
2:35 AM 73.4 °F - 73.4 °F 100% 30.01 in 10.0 mi Calm Calm - N/A   Clear
3:15 AM 73.4 °F - 73.4 °F 100% 30.00 in 10.0 mi Calm Calm - N/A   Clear
3:35 AM 73.4 °F - 73.4 °F 100% 30.00 in 10.0 mi Calm Calm - N/A   Clear
3:55 AM 71.6 °F - 71.6 °F 100% 30.00 in 10.0 mi Calm Calm - N/A   Clear
4:35 AM 71.6 °F - 71.6 °F 100% 30.00 in 10.0 mi Calm Calm - N/A   Clear
4:55 AM 71.6 °F - 71.6 °F 100% 29.99 in 10.0 mi NE 3.5 mph - N/A   Clear
5:15 AM 71.6 °F - 71.6 °F 100% 29.99 in 10.0 mi Calm Calm - N/A   Clear
5:35 AM 71.6 °F - 71.6 °F 100% 30.00 in 10.0 mi Calm Calm - N/A   Clear
5:55 AM 71.6 °F - 71.6 °F 100% 30.00 in 10.0 mi Calm Calm - N/A   Clear
6:15 AM 71.6 °F - 71.6 °F 100% 30.00 in 7.0 mi Calm Calm - N/A   Clear
6:35 AM 69.8 °F - 69.8 °F 100% 30.01 in 7.0 mi Calm Calm - N/A   Clear
7:35 AM 69.8 °F - 69.8 °F 100% 30.03 in 3.0 mi Calm Calm - N/A   Scattered Clouds
7:55 AM 71.6 °F - 71.6 °F 100% 30.04 in 0.2 mi Calm Calm - N/A Rain Rain
8:15 AM 71.6 °F - 71.6 °F 100% 30.04 in 0.2 mi ENE 3.5 mph - N/A   Light Drizzle
8:35 AM 71.6 °F - 71.6 °F 100% 30.05 in 0.2 mi Calm Calm - N/A Fog Fog
9:15 AM 73.4 °F - 73.4 °F 100% 30.05 in 5.0 mi East 3.5 mph - N/A   Mostly Cloudy
9:35 AM 77.0 °F - 77.0 °F 100% 30.05 in 10.0 mi Calm Calm - N/A   Scattered Clouds
9:55 AM 78.8 °F - 77.0 °F 94% 30.05 in 10.0 mi ENE 4.6 mph - N/A   Clear
10:15 AM 80.6 °F 87.1 °F 77.0 °F 89% 30.05 in 10.0 mi ESE 5.8 mph - N/A   Clear
10:35 AM 80.6 °F 87.1 °F 77.0 °F 89% 30.05 in 10.0 mi East 5.8 mph - N/A   Clear
10:55 AM 80.6 °F 87.1 °F 77.0 °F 89% 30.05 in 10.0 mi East 3.5 mph - N/A   Clear
11:15 AM 82.4 °F 89.5 °F 75.2 °F 79% 30.05 in 10.0 mi ENE 5.8 mph - N/A   Clear
11:35 AM 82.4 °F 89.5 °F 75.2 °F 79% 30.05 in 10.0 mi East 5.8 mph - N/A   Scattered Clouds
11:55 AM 82.4 °F 89.5 °F 75.2 °F 79% 30.05 in 10.0 mi NE 4.6 mph - N/A   Scattered Clouds
12:15 PM 86.0 °F 95.1 °F 75.2 °F 70% 30.05 in 10.0 mi ESE 4.6 mph - N/A   Mostly Cloudy
12:35 PM 86.0 °F 95.1 °F 75.2 °F 70% 30.05 in 10.0 mi ESE 6.9 mph - N/A   Overcast
1:15 PM 87.8 °F 95.6 °F 73.4 °F 62% 30.04 in 10.0 mi East 5.8 mph - N/A   Mostly Cloudy
1:35 PM 89.6 °F 98.2 °F 73.4 °F 59% 30.03 in 10.0 mi East 8.1 mph 16.1 mph N/A   Scattered Clouds
1:55 PM 87.8 °F 95.6 °F 73.4 °F 62% 30.02 in 10.0 mi ESE 9.2 mph - N/A Thunderstorm Mostly Cloudy
2:15 PM 91.4 °F 98.4 °F 71.6 °F 52% 30.01 in 10.0 mi Calm Calm - N/A Thunderstorm Scattered Clouds
2:35 PM 87.8 °F 93.8 °F 71.6 °F 58% 29.99 in 10.0 mi NE 6.9 mph - N/A Thunderstorm Mostly Cloudy
2:55 PM 91.4 °F 98.4 °F 71.6 °F 52% 29.99 in 10.0 mi East 8.1 mph 16.1 mph N/A Thunderstorm Scattered Clouds
3:15 PM 87.8 °F 93.8 °F 71.6 °F 58% 29.98 in 10.0 mi East 4.6 mph - N/A Thunderstorm Scattered Clouds
3:35 PM 87.8 °F 93.8 °F 71.6 °F 58% 29.98 in 10.0 mi ESE 3.5 mph - N/A Thunderstorm Thunderstorm
3:55 PM 87.8 °F 93.8 °F 71.6 °F 58% 29.97 in 10.0 mi East 4.6 mph - N/A Thunderstorm Thunderstorm
4:15 PM 87.8 °F 93.8 °F 71.6 °F 58% 29.98 in 10.0 mi North 9.2 mph - N/A Thunderstorm Mostly Cloudy
4:35 PM 82.4 °F 88.2 °F 73.4 °F 74% 29.98 in 10.0 mi NNW 11.5 mph 18.4 mph N/A Thunderstorm Mostly Cloudy
4:55 PM 80.6 °F 84.6 °F 71.6 °F 74% 29.97 in 10.0 mi North 8.1 mph 12.7 mph N/A   Scattered Clouds
5:15 PM 78.8 °F - 71.6 °F 78% 29.97 in 10.0 mi North 10.4 mph - N/A Thunderstorm Thunderstorm
5:35 PM 78.8 °F - 73.4 °F 83% 29.98 in 10.0 mi NE 8.1 mph - N/A Thunderstorm Clear
5:55 PM 80.6 °F 85.4 °F 73.4 °F 79% 29.98 in 10.0 mi North 9.2 mph - N/A Thunderstorm Clear
6:15 PM 80.6 °F 85.4 °F 73.4 °F 79% 29.98 in 10.0 mi NNE 8.1 mph - N/A Thunderstorm Thunderstorm
7:15 PM 78.8 °F - 73.4 °F 83% 30.01 in 10.0 mi East 12.7 mph 17.3 mph N/A Thunderstorm Scattered Clouds
7:35 PM 77.0 °F - 73.4 °F 89% 30.01 in 10.0 mi East 9.2 mph - N/A   Light Drizzle
7:55 PM 75.2 °F - 73.4 °F 94% 30.01 in 10.0 mi East 6.9 mph - N/A   Light Drizzle
8:15 PM 73.4 °F - 73.4 °F 100% 30.02 in 10.0 mi East 4.6 mph - N/A Rain Light Rain
8:35 PM 73.4 °F - 73.4 °F 100% 30.03 in 10.0 mi East 3.5 mph - N/A Thunderstorm Drizzle
8:55 PM 73.4 °F - 73.4 °F 100% 30.01 in 10.0 mi East 5.8 mph - N/A   Light Drizzle
9:15 PM 73.4 °F - 73.4 °F 100% 30.00 in 10.0 mi ENE 5.8 mph - N/A   Mostly Cloudy
9:35 PM 73.4 °F - 73.4 °F 100% 30.02 in 10.0 mi NNE 4.6 mph - N/A   Mostly Cloudy
9:55 PM 73.4 °F - 73.4 °F 100% 30.03 in 10.0 mi NNE 5.8 mph - N/A   Mostly Cloudy
10:15 PM 73.4 °F - 73.4 °F 100% 30.05 in 10.0 mi NNE 5.8 mph - N/A   Overcast
10:35 PM 73.4 °F - 73.4 °F 100% 30.05 in 10.0 mi NE 5.8 mph - N/A Thunderstorm Overcast
11:35 PM 73.4 °F - 73.4 °F 100% 30.05 in 10.0 mi East 4.6 mph - N/A Thunderstorm Overcast